Epoch,demod_status_bits,ebno,lock_status,signal_level,viterbi_ber
1663098624,,13.8,0x00c000,-38.7,
1663098625,C;S;V;F,13.9,0x00c000,-37.9,0.00e-0
1663098626,C;S;V;F,14.7,0x00c000,-37.6,0.00e-0
1663098627,C;S;V;F,,0x00c000,-37.4,0.00e-0
1663098628,C;S;V;F,14.9,0x00c000,-38.1,0.00e-0
1663098629,C;S;V;F,14.3,0x00c000,,0.00e-0
1663098630,C;S;V;F,13.8,0x00c000,-38.3,0.00e-0
1663098631,C;S;V;F,13.7,0x00c000,-38.1,0.00e-0
1663098632,C;S;V;F,14.3,0x00c000,-37.8,0.00e-0
1663098633,C;S;V;F,14.0,0x00c000,-38.0,0.00e-0
1663098634,C;S;V;F,14.0,0x00c000,-38.1,0.00e-0
1663098635,C;S;V;F,13.5,0x00c000,-38.9,0.00e-0
1663098636,C;S;V;F,14.0,0x00c000,-38.2,0.00e-0
1663098637,C;S;V;F,13.9,0x00c000,-38.8,0.00e-0
1663098638,C;S;V;F,13.6,0x00c000,-38.3,
1663098639,,14.3,0x00c000,-37.7,0.00e-0
1663098640,C;S;V;F,15.0,0x00c000,-37.4,0.00e-0
1663098641,C;S;V;F,14.3,0x00c000,-37.5,0.00e-0
1663098642,C;S;V;F,14.6,0x00c000,-37.6,0.00e-0
1663098643,C;S;V;F,,0x00c000,-37.9,0.00e-0
1663098644,C;S;V;F,14.7,0x00c000,-38.0,0.00e-0
1663098645,C;S;V;F,14.1,0x00c000,,0.00e-0
1663098646,C;S;V;F,14.2,0x00c000,-37.7,0.00e-0
1663098649,C;S;V;F,14.0,0x00c000,-39.1,0.00e-0
1663098650,C;S;V;F,14.0,0x00c000,-37.5,0.00e-0
1663098651,C;S;V;F,14.7,0x00c000,-37.7,0.00e-0
1663098652,C;S;V;F,14.7,0x00c000,-37.6,
1663098653,,14.7,0x00c000,-37.8,0.00e-0
1663098654,C;S;V;F,14.8,0x00c000,-37.6,0.00e-0
1663098655,C;S;V;F,14.9,0x00c000,-37.5,0.00e-0
1663098656,C;S;V;F,15.0,0x00c000,-37.6,0.00e-0
1663098657,C;S;V;F,,0x00c000,-37.2,0.00e-0
1663098658,C;S;V;F,15.1,0x00c000,,0.00e-0
1663098659,C;S;V;F,14.0,0x00c000,-38.2,0.00e-0
1663098660,C;S;V;F,15.0,0x00c000,-37.4,0.00e-0
1663098661,C;S;V;F,14.6,0x00c000,-37.5,0.00e-0
1663098662,C;S;V;F,15.0,0x00c000,-37.8,0.00e-0
1663098663,,14.9,0x00c000,-37.3,
1663098664,C;S;V;F,15.2,0x00c000,-37.1,0.00e-0
1663098665,C;S;V;F,15.3,0x00c000,-36.8,0.00e-0
1663098666,C;S;V;F,,0x00c000,-36.8,0.00e-0
1663098667,C;S;V;F,15.3,0x00c000,,0.00e-0
1663098668,C;S;V;F,15.2,0x00c000,-36.7,0.00e-0
1663098669,C;S;V;F,15.1,0x00c000,-37.2,0.00e-0
1663098670,C;S;V;F,15.1,0x00c000,-37.1,0.00e-0
1663098671,C;S;V;F,15.5,0x00c000,-36.9,0.00e-0
1663098672,C;S;V;F,15.7,0x00c000,-36.8,0.00e-0
1663098673,C;S;V;F,15.5,0x00c000,-37.5,0.00e-0
1663098674,C;S;V;F,14.4,0x00c000,-38.0,0.00e-0
1663098675,C;S;V;F,14.4,0x00c000,-37.5,
1663098676,,15.2,0x00c000,-37.0,0.00e-0
1663098677,C;S;V;F,15.1,0x00c000,-37.2,0.00e-0
1663098678,C;S;V;F,15.0,0x00c000,-37.2,0.00e-0
1663098679,C;S;V;F,,0x00c000,-37.5,0.00e-0
1663098680,C;S;V;F,15.0,0x00c000,,0.00e-0
1663098681,C;S;V;F,15.2,0x00c000,-37.5,0.00e-0
1663098682,C;S;V;F,14.9,0x00c000,-37.2,0.00e-0
1663098683,C;S;V;F,15.2,0x00c000,-37.2,0.00e-0
1663098684,C;S;V;F,15.7,0x00c000,-36.9,0.00e-0
1663098685,C;S;V;F,15.7,0x00c000,-37.1,0.00e-0
1663098686,C;S;V;F,15.0,0x00c000,-37.3,0.00e-0
1663098687,C;S;V;F,15.4,0x00c000,-36.9,0.00e-0
1663098688,C;S;V;F,15.8,0x00c000,-36.8,
1663098689,,15.7,0x00c000,-36.5,0.00e-0
1663098690,C;S;V;F,15.8,0x00c000,-36.8,0.00e-0
1663098691,C;S;V;F,,0x00c000,-36.9,0.00e-0
1663098692,C;S;V;F,15.5,0x00c000,,0.00e-0
1663098693,C;S;V;F,16.0,0x00c000,-36.5,0.00e-0
1663098694,C;S;V;F,15.9,0x00c000,-36.5,0.00e-0
1663098695,C;S;V;F,15.5,0x00c000,-36.8,0.00e-0
1663098696,C;S;V;F,15.5,0x00c000,-36.5,0.00e-0
1663098697,C;S;V;F,15.7,0x00c000,-37.1,0.00e-0
1663098698,C;S;V;F,15.0,0x00c000,-36.7,0.00e-0
1663098699,,15.5,0x00c000,-36.7,
1663098700,C;S;V;F,15.7,0x00c000,-36.5,0.00e-0
1663098701,C;S;V;F,,0x00c000,-36.8,0.00e-0
1663098702,C;S;V;F,15.5,0x00c000,,0.00e-0
1663098703,C;S;V;F,15.7,0x00c000,-36.7,0.00e-0
1663098704,C;S;V;F,15.8,0x00c000,-36.4,0.00e-0
1663098705,C;S;V;F,16.2,0x00c000,-36.4,0.00e-0
1663098706,C;S;V;F,16.1,0x00c000,-36.3,0.00e-0
1663098707,C;S;V;F,15.9,0x00c000,-36.3,0.00e-0
1663098708,C;S;V;F,15.9,0x00c000,-36.6,0.00e-0
1663098709,,15.9,0x00c000,-36.8,
1663098710,C;S;V;F,,,,0.00e-0
1663098711,,,0x00c000,-36.5,
1663098712,C;S;V;F,16.0,0x00c000,,0.00e-0
1663098713,C;S;V;F,15.7,0x00c000,-36.9,0.00e-0
1663098714,C;S;V;F,15.9,0x00c000,-36.8,0.00e-0
1663098715,C;S;V;F,15.6,0x00c000,-36.8,0.00e-0
1663098716,C;S;V;F,15.8,0x00c000,-36.8,0.00e-0
1663098717,C;S;V;F,15.8,0x00c000,-36.7,0.00e-0
1663098718,C;S;V;F,15.8,0x00c000,-36.9,0.00e-0
1663098719,C;S;V;F,15.7,0x00c000,-36.6,
1663098720,,15.9,0x00c000,-36.3,0.00e-0
1663098721,C;S;V;F,16.2,0x00c000,-36.3,0.00e-0
1663098722,C;S;V;F,,0x00c000,-36.4,0.00e-0
1663098723,C;S;V;F,16.2,0x00c000,,0.00e-0
1663098724,C;S;V;F,16.2,0x00c000,-36.4,0.00e-0
1663098725,C;S;V;F,16.0,0x00c000,-36.4,0.00e-0
1663098726,C;S;V;F,16.2,0x00c000,-36.4,0.00e-0
1663098727,C;S;V;F,15.9,0x00c000,-36.9,0.00e-0
1663098728,C;S;V;F,16.1,0x00c000,-36.3,0.00e-0
1663098729,C;S;V;F,16.1,0x00c000,-36.5,0.00e-0
1663098730,C;S;V;F,16.3,0x00c000,-36.3,0.00e-0
1663098731,C;S;V;F,16.0,0x00c000,-36.3,
1663098732,,16.3,0x00c000,-36.2,0.00e-0
1663098733,C;S;V;F,16.4,0x00c000,-36.1,0.00e-0
1663098734,C;S;V;F,,0x00c000,-36.3,0.00e-0
1663098735,C;S;V;F,16.2,0x00c000,,0.00e-0
1663098736,C;S;V;F,16.3,0x00c000,-36.3,0.00e-0
1663098737,C;S;V;F,16.2,0x00c000,-36.3,0.00e-0
1663098738,C;S;V;F,16.2,0x00c000,-36.3,0.00e-0
1663098739,C;S;V;F,16.1,0x00c000,-36.3,0.00e-0
1663098740,C;S;V;F,16.1,0x00c000,-36.3,0.00e-0
1663098741,C;S;V;F,16.2,0x00c000,-36.4,0.00e-0
1663098742,C;S;V;F,16.2,0x00c000,-36.5,0.00e-0
1663098743,C;S;V;F,16.0,0x00c000,-36.4,
1663098744,,16.2,0x00c000,-36.2,0.00e-0
1663098745,C;S;V;F,,0x00c000,-36.3,0.00e-0
1663098746,C;S;V;F,16.3,0x00c000,,0.00e-0
1663098747,C;S;V;F,16.4,0x00c000,-36.2,0.00e-0
1663098748,C;S;V;F,16.4,0x00c000,-36.1,0.00e-0
1663098749,C;S;V;F,16.3,0x00c000,-36.0,0.00e-0
1663098750,C;S;V;F,16.6,0x00c000,-35.8,0.00e-0
1663098751,C;S;V;F,16.6,0x00c000,-36.0,0.00e-0
1663098752,C;S;V;F,16.6,0x00c000,-35.9,0.00e-0
1663098753,C;S;V;F,16.7,0x00c000,-35.9,0.00e-0
1663098754,C;S;V;F,16.8,0x00c000,-36.0,0.00e-0
1663098755,,16.5,0x00c000,-36.0,
1663098756,C;S;V;F,16.7,0x00c000,-36.1,0.00e-0
1663098757,C;S;V;F,16.5,0x00c000,-36.0,0.00e-0
1663098758,C;S;V;F,,0x00c000,-35.8,0.00e-0
1663098759,C;S;V;F,16.8,0x00c000,,0.00e-0
1663098760,C;S;V;F,16.4,0x00c000,-35.9,0.00e-0
1663098761,C;S;V;F,16.7,0x00c000,-35.6,0.00e-0
1663098762,C;S;V;F,16.8,0x00c000,-35.6,0.00e-0
1663098763,C;S;V;F,16.2,0x00c000,-35.8,0.00e-0
1663098764,C;S;V;F,16.8,0x00c000,-35.8,0.00e-0
1663098765,,16.7,0x00c000,-35.6,
1663098766,C;S;V;F,,0x00c000,-35.6,0.00e-0
1663098767,C;S;V;F,17.0,0x00c000,,0.00e-0
1663098768,C;S;V;F,16.7,0x00c000,-35.6,0.00e-0
1663098769,C;S;V;F,17.0,0x00c000,-35.5,0.00e-0
1663098770,C;S;V;F,17.0,0x00c000,-35.5,0.00e-0
1663098771,C;S;V;F,17.0,0x00c000,-35.5,0.00e-0
1663098773,C;S;V;F,17.2,0x00c000,-35.4,0.00e-0
1663098774,,17.1,0x00c000,-35.2,
1663098775,C;S;V;F,17.0,0x00c000,-35.2,0.00e-0
1663098776,C;S;V;F,,0x00c000,,0.00e-0
1663098777,C;S;V;F,17.0,0x00c000,-35.4,0.00e-0
1663098778,C;S;V;F,17.1,0x00c000,-35.3,0.00e-0
1663098779,C;S;V;F,17.0,0x00c000,-35.3,0.00e-0
1663098780,C;S;V;F,17.2,0x00c000,-35.4,0.00e-0
1663098781,C;S;V;F,17.0,0x00c000,-35.6,0.00e-0
1663098782,C;S;V;F,16.9,0x00c000,-35.6,0.00e-0
1663098783,,16.7,0x00c000,-35.8,
1663098784,C;S;V;F,16.8,0x00c000,-35.6,0.00e-0
1663098785,C;S;V;F,16.7,0x00c000,-35.9,0.00e-0
1663098786,C;S;V;F,,0x00c000,,0.00e-0
1663098787,C;S;V;F,16.8,0x00c000,-35.6,0.00e-0
1663098788,C;S;V;F,16.8,0x00c000,-35.8,0.00e-0
1663098789,C;S;V;F,16.9,0x00c000,-35.9,0.00e-0
1663098790,C;S;V;F,16.7,0x00c000,-35.8,0.00e-0
1663098791,C;S;V;F,16.8,0x00c000,-36.0,0.00e-0
1663098792,C;S;V;F,16.7,0x00c000,-35.9,0.00e-0
1663098793,C;S;V;F,16.6,0x00c000,-35.9,0.00e-0
1663098794,,16.6,0x00c000,-36.0,
1663098795,C;S;V;F,16.9,0x00c000,-35.8,0.00e-0
1663098796,C;S;V;F,16.6,0x00c000,-35.7,0.00e-0
1663098797,C;S;V;F,,0x00c000,-35.3,0.00e-0
1663098798,C;S;V;F,17.0,0x00c000,-35.2,0.00e-0
1663098799,C;S;V;F,17.2,0x00c000,,0.00e-0
1663098800,C;S;V;F,17.3,0x00c000,-35.2,0.00e-0
1663098801,C;S;V;F,17.3,0x00c000,-35.4,0.00e-0
1663098802,C;S;V;F,17.2,0x00c000,-35.2,0.00e-0
1663098803,C;S;V;F,17.2,0x00c000,-35.1,0.00e-0
1663098804,C;S;V;F,17.2,0x00c000,-35.5,0.00e-0
1663098805,C;S;V;F,17.4,0x00c000,-34.9,0.00e-0
1663098806,C;S;V;F,17.3,0x00c000,-34.9,
1663098807,,17.5,0x00c000,-34.9,0.00e-0
1663098808,C;S;V;F,,0x00c000,-34.7,0.00e-0
1663098809,C;S;V;F,17.5,0x00c000,-34.4,0.00e-0
1663098810,C;S;V;F,17.6,0x00c000,,0.00e-0
1663098811,C;S;V;F,17.8,0x00c000,-34.6,0.00e-0
1663098812,C;S;V;F,17.6,0x00c000,-34.7,0.00e-0
1663098813,C;S;V;F,17.4,0x00c000,-34.7,0.00e-0
1663098814,C;S;V;F,17.5,0x00c000,-34.7,0.00e-0
1663098815,C;S;V;F,17.7,0x00c000,-34.6,0.00e-0
1663098816,C;S;V;F,17.6,0x00c000,-34.8,0.00e-0
1663098817,C;S;V;F,17.7,0x00c000,-34.5,
1663098818,,17.7,0x00c000,-34.6,0.00e-0
1663098819,C;S;V;F,17.8,0x00c000,-34.5,0.00e-0
1663098820,C;S;V;F,,0x00c000,-34.3,0.00e-0
1663098821,C;S;V;F,17.9,0x00c000,,0.00e-0
1663098822,C;S;V;F,17.8,0x00c000,-34.2,0.00e-0
1663098823,C;S;V;F,17.8,0x00c000,-34.5,0.00e-0
1663098824,C;S;V;F,17.8,0x00c000,-34.6,0.00e-0
1663098825,C;S;V;F,17.6,0x00c000,-34.8,0.00e-0
1663098826,C;S;V;F,17.6,0x00c000,-34.8,0.00e-0
1663098827,C;S;V;F,17.6,0x00c000,-34.7,0.00e-0
1663098828,C;S;V;F,17.6,0x00c000,-34.5,0.00e-0
1663098829,C;S;V;F,17.7,0x00c000,-34.7,
1663098830,,17.5,0x00c000,-34.7,0.00e-0
1663098831,C;S;V;F,17.7,0x00c000,-34.7,0.00e-0
1663098832,C;S;V;F,,0x00c000,-34.8,0.00e-0
1663098833,C;S;V;F,17.6,0x00c000,,0.00e-0
1663098834,C;S;V;F,17.5,0x00c000,-34.8,0.00e-0
1663098836,C;S;V;F,17.6,0x00c000,-34.8,0.00e-0
1663098837,C;S;V;F,17.4,0x00c000,-34.9,0.00e-0
1663098838,,17.4,0x00c000,-34.8,
1663098839,C;S;V;F,17.8,0x00c000,-34.7,0.00e-0
1663098840,C;S;V;F,,0x00c000,-34.8,0.00e-0
1663098841,C;S;V;F,17.5,0x00c000,,0.00e-0
1663098842,C;S;V;F,17.3,0x00c000,-35.1,0.00e-0
1663098843,C;S;V;F,17.2,0x00c000,-35.3,0.00e-0
1663098844,C;S;V;F,17.3,0x00c000,-35.5,0.00e-0
1663098845,C;S;V;F,17.0,0x00c000,-35.7,0.00e-0
1663098846,C;S;V;F,16.7,0x00c000,-35.7,0.00e-0
1663098847,C;S;V;F,16.8,0x00c000,-36.0,0.00e-0
1663098848,C;S;V;F,16.8,0x00c000,-35.7,0.00e-0
1663098849,C;S;V;F,17.0,0x00c000,-35.9,
1663098850,,16.8,0x00c000,-35.9,0.00e-0
1663098851,C;S;V;F,,0x00c000,-35.9,0.00e-0
1663098852,C;S;V;F,16.8,0x00c000,,0.00e-0
1663098853,C;S;V;F,16.8,0x00c000,-36.3,0.00e-0
1663098854,C;S;V;F,16.4,0x00c000,-36.4,0.00e-0
1663098855,C;S;V;F,16.3,0x00c000,-36.4,0.00e-0
1663098856,C;S;V;F,16.3,0x00c000,-36.8,0.00e-0
1663098857,C;S;V;F,15.9,0x00c000,-36.7,0.00e-0
1663098858,C;S;V;F,16.2,0x00c000,-36.5,
1663098859,,16.4,0x00c000,-36.4,0.00e-0
1663098860,C;S;V;F,16.5,0x00c000,-36.3,0.00e-0
1663098861,C;S;V;F,,0x00c000,-36.0,0.00e-0
1663098862,C;S;V;F,16.8,0x00c000,,0.00e-0
1663098863,C;S;V;F,16.9,0x00c000,-35.9,0.00e-0
1663098864,C;S;V;F,17.0,0x00c000,-35.6,0.00e-0
1663098865,C;S;V;F,16.9,0x00c000,-35.7,0.00e-0
1663098866,C;S;V;F,17.0,0x00c000,-35.9,0.00e-0
1663098867,C;S;V;F,16.9,0x00c000,-35.7,0.00e-0
1663098868,C;S;V;F,16.7,0x00c000,-36.0,0.00e-0
1663098869,C;S;V;F,16.6,0x00c000,-36.0,0.00e-0
1663098870,,16.8,0x00c000,-35.9,
1663098871,C;S;V;F,16.5,0x00c000,-35.7,0.00e-0
1663098872,C;S;V;F,16.8,0x00c000,-36.0,0.00e-0
1663098873,C;S;V;F,16.5,0x00c000,-36.2,0.00e-0
1663098874,C;S;V;F,,0x00c000,-36.1,0.00e-0
1663098875,C;S;V;F,16.7,0x00c000,,0.00e-0
1663098876,C;S;V;F,16.7,0x00c000,-36.2,0.00e-0
1663098877,C;S;V;F,16.7,0x00c000,-36.0,0.00e-0
1663098878,C;S;V;F,16.7,0x00c000,-36.1,0.00e-0
1663098879,C;S;V;F,16.6,0x00c000,-36.4,0.00e-0
1663098880,C;S;V;F,16.3,0x00c000,-36.4,0.00e-0
1663098881,C;S;V;F,16.2,0x00c000,-36.6,0.00e-0
1663098882,,16.2,0x00c000,-36.9,
1663098883,C;S;V;F,16.0,0x00c000,-37.2,0.00e-0
1663098884,C;S;V;F,15.9,0x00c000,-37.1,0.00e-0
1663098885,C;S;V;F,,0x00c000,-36.9,0.00e-0
1663098886,C;S;V;F,15.8,0x00c000,,0.00e-0
1663098887,C;S;V;F,16.1,0x00c000,-37.0,0.00e-0
1663098888,C;S;V;F,16.2,0x00c000,-36.7,0.00e-0
1663098889,C;S;V;F,16.5,0x00c000,-36.4,0.00e-0
1663098890,C;S;V;F,16.4,0x00c000,-36.4,0.00e-0
1663098891,C;S;V;F,16.6,0x00c000,-36.4,0.00e-0
1663098892,C;S;V;F,16.4,0x00c000,-36.4,
1663098893,,16.2,0x00c000,-36.6,0.00e-0
1663098894,C;S;V;F,16.2,0x00c000,-36.5,0.00e-0
1663098895,C;S;V;F,16.2,0x00c000,-36.6,0.00e-0
1663098896,C;S;V;F,,0x00c000,-36.7,0.00e-0
1663098897,C;S;V;F,16.1,0x00c000,,0.00e-0
1663098899,C;S;V;F,16.3,0x00c000,-36.4,0.00e-0
1663098900,C;S;V;F,16.4,0x00c000,-36.4,0.00e-0
1663098901,C;S;V;F,16.2,0x00c000,-36.4,0.00e-0
1663098902,C;S;V;F,16.4,0x00c000,-36.4,0.00e-0
1663098903,,16.3,0x00c000,-36.7,
1663098904,C;S;V;F,,,,0.00e-0
1663098907,,15.8,0x00c000,-37.2,
1663098908,C;S;V;F,15.8,0x00c000,-37.2,0.00e-0
1663098909,C;S;V;F,15.7,0x00c000,-37.4,0.00e-0
1663098910,C;S;V;F,,0x00c000,-37.4,0.00e-0
1663098911,C;S;V;F,15.9,0x00c000,,0.00e-0
1663098912,C;S;V;F,16.1,0x00c000,-37.2,0.00e-0
1663098913,C;S;V;F,15.9,0x00c000,-37.1,0.00e-0
1663098914,C;S;V;F,15.9,0x00c000,-37.3,0.00e-0
1663098915,C;S;V;F,15.7,0x00c000,-37.1,0.00e-0
1663098916,C;S;V;F,15.7,0x00c000,-37.2,0.00e-0
1663098917,C;S;V;F,15.6,0x00c000,-37.5,0.00e-0
1663098918,C;S;V;F,15.6,0x00c000,-37.5,0.00e-0
1663098919,C;S;V;F,15.4,0x00c000,-37.5,0.00e-0
1663098920,C;S;V;F,15.6,0x00c000,-37.5,0.00e-0
1663098921,,15.6,0x00c000,-37.2,
1663098922,C;S;V;F,15.9,0x00c000,-37.0,0.00e-0
1663098923,C;S;V;F,,0x00c000,-36.4,0.00e-0
1663098924,C;S;V;F,16.2,0x00c000,-36.1,0.00e-0
1663098925,C;S;V;F,16.6,0x00c000,,0.00e-0
1663098926,C;S;V;F,16.5,0x00c000,-36.1,0.00e-0
1663098927,C;S;V;F,16.7,0x00c000,-36.1,0.00e-0
1663098928,C;S;V;F,16.8,0x00c000,-36.1,0.00e-0
1663098929,C;S;V;F,16.8,0x00c000,-35.9,0.00e-0
1663098930,C;S;V;F,16.7,0x00c000,-36.0,
1663098931,,16.7,0x00c000,-36.1,0.00e-0
1663098932,C;S;V;F,16.7,0x00c000,-36.1,0.00e-0
1663098933,C;S;V;F,16.9,0x00c000,-35.9,0.00e-0
1663098934,C;S;V;F,,0x00c000,-35.9,0.00e-0
1663098935,C;S;V;F,16.9,0x00c000,,0.00e-0
1663098936,C;S;V;F,17.0,0x00c000,-35.6,0.00e-0
1663098937,C;S;V;F,17.0,0x00c000,-35.8,0.00e-0
1663098938,C;S;V;F,16.7,0x00c000,-36.0,0.00e-0
1663098939,C;S;V;F,16.5,0x00c000,-36.4,0.00e-0
1663098940,C;S;V;F,16.3,0x00c000,-36.7,0.00e-0
1663098941,C;S;V;F,16.0,0x00c000,-36.9,0.00e-0
1663098942,C;S;V;F,16.0,0x00c000,-36.8,
1663098943,,16.2,0x00c000,-36.6,0.00e-0
1663098944,C;S;V;F,16.4,0x00c000,-36.2,0.00e-0
1663098945,C;S;V;F,,0x00c000,-35.9,0.00e-0
1663098946,C;S;V;F,16.6,0x00c000,,0.00e-0
1663098947,C;S;V;F,16.8,0x00c000,-36.0,0.00e-0
1663098948,C;S;V;F,16.9,0x00c000,-35.9,0.00e-0
1663098949,C;S;V;F,16.7,0x00c000,-36.0,0.00e-0
1663098950,C;S;V;F,16.8,0x00c000,-36.2,0.00e-0
1663098951,C;S;V;F,16.4,0x00c000,-36.4,0.00e-0
1663098952,C;S;V;F,16.6,0x00c000,-36.5,0.00e-0
1663098953,C;S;V;F,16.4,0x00c000,-36.5,
1663098954,,16.6,0x00c000,-36.3,0.00e-0
1663098955,C;S;V;F,16.5,0x00c000,-36.2,0.00e-0
1663098956,C;S;V;F,16.7,0x00c000,-36.1,0.00e-0
1663098957,C;S;V;F,,0x00c000,-36.0,0.00e-0
1663098958,C;S;V;F,16.7,0x00c000,,0.00e-0
1663098959,C;S;V;F,16.8,0x00c000,-36.1,0.00e-0
1663098960,C;S;V;F,16.7,0x00c000,-36.3,0.00e-0
1663098962,,16.2,0x00c000,-36.8,
1663098963,C;S;V;F,,0x00c000,,0.00e-0
1663098964,C;S;V;F,16.1,0x00c000,-36.7,0.00e-0
1663098965,C;S;V;F,16.4,0x00c000,-36.5,0.00e-0
1663098966,C;S;V;F,16.2,0x00c000,-36.4,0.00e-0
1663098967,C;S;V;F,16.5,0x00c000,-36.4,0.00e-0
1663098968,C;S;V;F,16.6,0x00c000,-36.3,
1663098969,,16.5,0x00c000,-36.0,0.00e-0
1663098970,C;S;V;F,16.7,0x00c000,-35.9,0.00e-0
1663098971,C;S;V;F,17.0,0x00c000,-35.6,0.00e-0
1663098972,C;S;V;F,,0x00c000,-35.5,0.00e-0
1663098973,C;S;V;F,17.1,0x00c000,-35.9,0.00e-0
1663098974,C;S;V;F,16.7,0x00c000,,0.00e-0
1663098975,C;S;V;F,16.7,0x00c000,-36.1,0.00e-0
1663098976,C;S;V;F,16.3,0x00c000,-36.5,0.00e-0
1663098977,C;S;V;F,16.1,0x00c000,-36.7,0.00e-0
1663098978,C;S;V;F,15.8,0x00c000,-37.0,0.00e-0
1663098979,C;S;V;F,16.0,0x00c000,-37.0,0.00e-0
1663098980,C;S;V;F,15.9,0x00c000,-37.1,0.00e-0
1663098981,C;S;V;F,15.8,0x00c000,-37.1,
1663098982,,16.1,0x00c000,-36.8,0.00e-0
1663098983,C;S;V;F,16.1,0x00c000,-36.4,0.00e-0
1663098984,C;S;V;F,16.2,0x00c000,-36.5,0.00e-0
1663098985,C;S;V;F,,0x00c000,-36.3,0.00e-0
1663098986,C;S;V;F,16.6,0x00c000,-36.3,0.00e-0
1663098987,C;S;V;F,16.6,0x00c000,,0.00e-0
1663098988,C;S;V;F,16.7,0x00c000,-36.0,0.00e-0
1663098989,C;S;V;F,16.6,0x00c000,-36.2,0.00e-0
1663098990,C;S;V;F,16.5,0x00c000,-36.3,0.00e-0
1663098991,C;S;V;F,16.5,0x00c000,-36.5,0.00e-0
1663098992,,16.2,0x00c000,-36.7,
1663098993,C;S;V;F,16.5,0x00c000,-36.5,0.00e-0
1663098994,C;S;V;F,16.5,0x00c000,-36.3,0.00e-0
1663098995,C;S;V;F,,0x00c000,-36.1,0.00e-0
1663098996,C;S;V;F,16.7,0x00c000,-35.9,0.00e-0
1663098997,C;S;V;F,16.7,0x00c000,,0.00e-0
1663098998,C;S;V;F,16.7,0x00c000,-36.0,0.00e-0
1663098999,C;S;V;F,16.6,0x00c000,-36.3,0.00e-0
1663099000,C;S;V;F,16.5,0x00c000,-36.2,0.00e-0
1663099001,C;S;V;F,16.7,0x00c000,-36.0,0.00e-0
1663099002,C;S;V;F,16.7,0x00c000,-35.8,0.00e-0
1663099003,C;S;V;F,17.0,0x00c000,-35.8,
1663099004,,17.0,0x00c000,-35.5,0.00e-0
1663099005,C;S;V;F,17.1,0x00c000,-35.4,0.00e-0
1663099006,C;S;V;F,17.4,0x00c000,-35.4,0.00e-0
1663099007,C;S;V;F,,0x00c000,-35.1,0.00e-0
1663099008,C;S;V;F,17.4,0x00c000,-35.0,0.00e-0
1663099009,C;S;V;F,17.4,0x00c000,,0.00e-0
1663099010,C;S;V;F,17.4,0x00c000,-34.9,0.00e-0
1663099011,C;S;V;F,17.7,0x00c000,-34.7,0.00e-0
1663099012,C;S;V;F,17.7,0x00c000,-34.6,0.00e-0
1663099013,C;S;V;F,17.9,0x00c000,-34.6,0.00e-0
1663099014,C;S;V;F,17.8,0x00c000,-34.7,0.00e-0
1663099015,C;S;V;F,17.6,0x00c000,-34.8,0.00e-0
1663099016,C;S;V;F,17.7,0x00c000,-34.8,
1663099017,,17.5,0x00c000,-34.8,0.00e-0
1663099018,C;S;V;F,17.7,0x00c000,-34.7,0.00e-0
1663099019,C;S;V;F,,0x00c000,-34.6,0.00e-0
1663099020,C;S;V;F,17.7,0x00c000,,0.00e-0
1663099021,C;S;V;F,17.8,0x00c000,-34.6,0.00e-0
1663099022,C;S;V;F,17.9,0x00c000,-34.8,0.00e-0
1663099025,C;S;V;F,18.2,0x00c000,-34.0,
1663099026,,18.4,0x00c000,-33.7,0.00e-0
1663099027,C;S;V;F,18.3,0x00c000,-33.7,0.00e-0
1663099028,C;S;V;F,,0x00c000,-33.9,0.00e-0
1663099029,C;S;V;F,18.2,0x00c000,-33.9,0.00e-0
1663099030,C;S;V;F,18.1,0x00c000,,0.00e-0
1663099031,C;S;V;F,18.0,0x00c000,-33.9,0.00e-0
1663099032,C;S;V;F,18.2,0x00c000,-33.9,0.00e-0
1663099033,C;S;V;F,18.1,0x00c000,-34.0,0.00e-0
1663099034,C;S;V;F,18.3,0x00c000,-34.0,0.00e-0
1663099035,C;S;V;F,18.0,0x00c000,-34.5,0.00e-0
1663099036,C;S;V;F,17.7,0x00c000,-34.6,0.00e-0
1663099037,C;S;V;F,17.7,0x00c000,-34.6,0.00e-0
1663099038,,17.7,0x00c000,-34.8,
1663099039,C;S;V;F,17.2,0x00c000,-35.1,0.00e-0
1663099040,C;S;V;F,,0x00c000,-35.1,0.00e-0
1663099041,C;S;V;F,17.6,0x00c000,,0.00e-0
1663099042,C;S;V;F,17.3,0x00c000,-34.9,0.00e-0
1663099043,C;S;V;F,17.3,0x00c000,-34.7,0.00e-0
1663099044,C;S;V;F,17.7,0x00c000,-34.4,0.00e-0
1663099045,C;S;V;F,17.7,0x00c000,-34.3,0.00e-0
1663099046,C;S;V;F,18.1,0x00c000,-34.3,0.00e-0
1663099047,C;S;V;F,17.9,0x00c000,-34.1,0.00e-0
1663099048,C;S;V;F,18.0,0x00c000,-34.1,0.00e-0
1663099049,C;S;V;F,17.9,0x00c000,-34.0,
1663099050,,18.0,0x00c000,-34.1,0.00e-0
1663099051,C;S;V;F,17.8,0x00c000,-34.7,0.00e-0
1663099052,C;S;V;F,,0x00c000,-35.1,0.00e-0
1663099053,C;S;V;F,17.1,0x00c000,,0.00e-0
1663099054,C;S;V;F,17.0,0x00c000,-35.4,0.00e-0
1663099055,C;S;V;F,16.8,0x00c000,-35.8,0.00e-0
1663099056,C;S;V;F,16.6,0x00c000,-36.0,0.00e-0
1663099057,C;S;V;F,16.3,0x00c000,-36.4,0.00e-0
1663099058,C;S;V;F,16.2,0x00c000,-36.4,0.00e-0
1663099059,C;S;V;F,16.0,0x00c000,-36.4,0.00e-0
1663099060,C;S;V;F,16.3,0x00c000,-36.4,
1663099061,,16.4,0x00c000,-36.4,0.00e-0
1663099062,C;S;V;F,16.3,0x00c000,-36.3,0.00e-0
1663099063,C;S;V;F,,0x00c000,-35.9,0.00e-0
1663099064,C;S;V;F,16.6,0x00c000,-35.7,0.00e-0
1663099065,C;S;V;F,16.9,0x00c000,,0.00e-0
1663099066,C;S;V;F,17.2,0x00c000,-35.6,0.00e-0
1663099067,C;S;V;F,17.4,0x00c000,-35.2,0.00e-0
1663099068,C;S;V;F,17.4,0x00c000,-35.2,0.00e-0
1663099069,C;S;V;F,17.3,0x00c000,-35.1,0.00e-0
1663099070,C;S;V;F,17.1,0x00c000,-35.5,0.00e-0
1663099071,C;S;V;F,16.9,0x00c000,-35.8,
1663099072,,16.7,0x00c000,-35.9,0.00e-0
1663099073,C;S;V;F,16.7,0x00c000,-36.1,0.00e-0
1663099074,C;S;V;F,16.5,0x00c000,-36.1,0.00e-0
1663099075,C;S;V;F,,0x00c000,-36.4,0.00e-0
1663099076,C;S;V;F,16.3,0x00c000,,0.00e-0
1663099077,C;S;V;F,16.4,0x00c000,-36.4,0.00e-0
1663099078,C;S;V;F,16.3,0x00c000,-36.4,0.00e-0
1663099079,C;S;V;F,16.4,0x00c000,-36.4,0.00e-0
1663099080,C;S;V;F,16.5,0x00c000,-36.4,0.00e-0
1663099081,C;S;V;F,16.7,0x00c000,-35.9,0.00e-0
1663099082,C;S;V;F,17.0,0x00c000,-35.6,
1663099083,,17.2,0x00c000,-35.4,0.00e-0
1663099084,C;S;V;F,17.3,0x00c000,-35.1,0.00e-0
1663099085,C;S;V;F,17.2,0x00c000,-35.3,0.00e-0
1663099086,C;S;V;F,,0x00c000,,0.00e-0
1663099088,C;S;V;F,17.0,0x00c000,-35.6,0.00e-0
1663099089,C;S;V;F,16.6,0x00c000,-36.0,0.00e-0
1663099090,C;S;V;F,17.1,0x00c000,-35.7,0.00e-0
1663099091,C;S;V;F,16.8,0x00c000,-35.6,
1663099092,,16.8,0x00c000,-35.6,0.00e-0
1663099093,C;S;V;F,17.0,0x00c000,-35.6,0.00e-0
1663099094,C;S;V;F,17.0,0x00c000,-35.5,0.00e-0
1663099095,C;S;V;F,,0x00c000,-35.6,0.00e-0
1663099096,C;S;V;F,17.0,0x00c000,,0.00e-0
1663099097,C;S;V;F,16.8,0x00c000,-36.0,0.00e-0
1663099098,C;S;V;F,16.6,0x00c000,-36.0,0.00e-0
1663099099,C;S;V;F,16.5,0x00c000,-36.3,0.00e-0
1663099100,C;S;V;F,16.3,0x00c000,-36.4,0.00e-0
1663099101,C;S;V;F,16.1,0x00c000,-36.7,0.00e-0
1663099102,C;S;V;F,16.4,0x00c000,-36.4,
1663099103,,16.3,0x00c000,-36.4,0.00e-0
1663099104,C;S;V;F,16.4,0x00c000,-36.3,0.00e-0
1663099105,C;S;V;F,,0x00c000,-36.7,0.00e-0
1663099106,C;S;V;F,16.1,0x00c000,,0.00e-0
1663099107,C;S;V;F,16.0,0x00c000,-36.5,0.00e-0
1663099108,C;S;V;F,16.1,0x00c000,-36.5,0.00e-0
1663099109,C;S;V;F,16.5,0x00c000,-36.1,
1663099110,,16.6,0x00c000,-36.0,0.00e-0
1663099111,C;S;V;F,17.1,0x00c000,-35.3,0.00e-0
1663099112,C;S;V;F,17.1,0x00c000,-35.4,0.00e-0
1663099113,C;S;V;F,,0x00c000,,0.00e-0
1663099114,C;S;V;F,16.8,0x00c000,-35.7,0.00e-0
1663099115,C;S;V;F,16.3,0x00c000,-36.3,0.00e-0
1663099116,C;S;V;F,16.2,0x00c000,-36.5,0.00e-0
1663099117,C;S;V;F,16.1,0x00c000,-36.7,0.00e-0
1663099118,C;S;V;F,15.9,0x00c000,-37.0,0.00e-0
1663099119,C;S;V;F,15.9,0x00c000,-36.4,0.00e-0
1663099120,C;S;V;F,16.2,0x00c000,-36.5,0.00e-0
1663099121,C;S;V;F,16.5,0x00c000,-36.1,
1663099122,,16.3,0x00c000,-35.9,0.00e-0
1663099123,C;S;V;F,16.5,0x00c000,-35.9,0.00e-0
1663099124,C;S;V;F,,0x00c000,-36.0,0.00e-0
1663099125,C;S;V;F,16.5,0x00c000,,0.00e-0
1663099126,C;S;V;F,16.2,0x00c000,-36.4,0.00e-0
1663099127,C;S;V;F,16.3,0x00c000,-36.4,0.00e-0
1663099128,C;S;V;F,16.1,0x00c000,-36.8,0.00e-0
1663099129,C;S;V;F,16.0,0x00c000,-36.6,0.00e-0
1663099130,C;S;V;F,16.2,0x00c000,-36.5,0.00e-0
1663099131,C;S;V;F,16.4,0x00c000,-36.3,0.00e-0
1663099132,C;S;V;F,16.7,0x00c000,-36.0,
1663099133,,16.7,0x00c000,-35.6,0.00e-0
1663099134,C;S;V;F,17.0,0x00c000,-35.4,0.00e-0
1663099135,C;S;V;F,,0x00c000,-35.9,0.00e-0
1663099136,C;S;V;F,16.5,0x00c000,,0.00e-0
1663099137,C;S;V;F,15.9,0x00c000,-36.6,0.00e-0
1663099138,C;S;V;F,15.9,0x00c000,-36.6,0.00e-0
1663099139,C;S;V;F,15.9,0x00c000,-36.8,0.00e-0
1663099140,C;S;V;F,15.8,0x00c000,-36.8,0.00e-0
1663099141,C;S;V;F,15.9,0x00c000,-36.8,0.00e-0
1663099142,C;S;V;F,15.9,0x00c000,-36.8,0.00e-0
1663099143,,16.1,0x00c000,-36.8,
1663099144,C;S;V;F,16.3,0x00c000,-36.4,0.00e-0
1663099145,C;S;V;F,,0x00c000,-36.4,0.00e-0
1663099146,C;S;V;F,16.2,0x00c000,-36.0,0.00e-0
1663099147,C;S;V;F,16.4,0x00c000,,0.00e-0
1663099148,C;S;V;F,16.2,0x00c000,-36.7,0.00e-0
1663099150,,,0x00c000,-37.2,
1663099151,C;S;V;F,15.6,0x00c000,,0.00e-0
1663099152,C;S;V;F,15.5,0x00c000,-37.2,0.00e-0
1663099153,C;S;V;F,15.6,0x00c000,-37.0,0.00e-0
1663099154,C;S;V;F,15.9,0x00c000,-36.4,0.00e-0
1663099155,C;S;V;F,16.1,0x00c000,-36.1,0.00e-0
1663099156,C;S;V;F,16.4,0x00c000,-36.1,0.00e-0
1663099157,C;S;V;F,16.5,0x00c000,-36.4,0.00e-0
1663099158,C;S;V;F,16.2,0x00c000,-36.0,
1663099159,,16.1,0x00c000,-36.3,0.00e-0
1663099160,C;S;V;F,16.2,0x00c000,-36.4,0.00e-0
1663099161,C;S;V;F,,0x00c000,-37.1,0.00e-0
1663099162,C;S;V;F,15.7,0x00c000,-37.2,0.00e-0
1663099163,C;S;V;F,15.4,0x00c000,-37.2,0.00e-0
1663099164,C;S;V;F,15.4,0x00c000,,0.00e-0
1663099165,C;S;V;F,15.5,0x00c000,-37.2,0.00e-0
1663099166,C;S;V;F,15.8,0x00c000,-37.1,0.00e-0
1663099167,C;S;V;F,15.4,0x00c000,-37.2,0.00e-0
1663099168,C;S;V;F,15.5,0x00c000,-37.1,0.00e-0
1663099169,C;S;V;F,15.8,0x00c000,-36.5,0.00e-0
1663099170,C;S;V;F,16.1,0x00c000,-36.7,0.00e-0